Showing default

FLOCK 4BE 11, 60501

Orbit data source: Space-Track

FLOCK 4BE 11, 60501 is a payload satellite owned by Planet (US) in SSO that was launched on Fri, 16 Aug 2024 UTC via an FALCON 9 launch vehicle from the Air Force Western Test Range (AFWTR). Payload-class satellites include a variety of spacecraft equipped with specific instruments for various scientific and technological missions. These include communications satellites like Starlink; space stations such as the ISS; scientific satellites like the Hubble; Earth observation satellites from companies like Planet Labs, Umbra, and HawkEye 360; GPS; miniature CubeSats for education and research; and military/defense satellites.

Loading next visibility...
Identifier
60501, 2024-149AK
Orbit
SSO
Country
Flag of USUS
Related business
Manufacturer
Planet
Mission
Operational Commercial Imaging
Bus & Motor
CUBESAT 3U, Unknown motor
Mass
5.7 kg wet, 5.7 kg dry
Launch date (UTC)
2024-08-16 (1 year ago)
Launch vehicle
FALCON 9
Launch site
Air Force Western Test Range (AFWTR)
Object type
Payload
Rocket body
Debris
Shape & HBR
Box + 2 Pan, 0.1 m
Radar Cross Section
0.035 m², Medium (>0.1 m² and < 1m²)

Expand to show TLE details & history
Last TLE update: 17 hours ago

TLE from 17 hours ago
0 FLOCK 4BE 11
1 60501U 24149AK  25260.19983089  .00012700  00000-0  42693-3 0  9991
2 60501  97.3974 338.0781 0005996 159.7514 200.3966 15.30938196 60416
Epoch: 2025-09-17T04:47Z
TLE epoch observation values (Epoch: 2025-09-17T04:47:45.388Z)
Latitude
-0.00005°
Longitude
-90.24021°
Altitude
479.969 km
Speed
7.623 km/s
True Right ascension
22h 32m 18s
True Declination
0° 00' 00"
Sunlit
Object was in full shadow at epoch
Visualization orbit readout
Latitude
Unknown
Longitude
Unknown
Altitude
Unknown
Speed
Unknown
Apparent Right ascension
Unknown
Apparent Declination
Unknown
Sunlit
N/A
Visualization observer readout
Local Sidereal Time
15:01:31
Azimuth
Unknown
Elevation
Unknown
Doppler factor
Unknown
Orbital elements
Apogee altitude
474.069 km
Perigee altitude
465.857 km
Semi-major axis
6,848.1 km
Eccentricity
0.0006
Inclination
97.3974°
RAAN
338.0781°
Arg. of periapsis
159.7514°
True anomaly
200.37267°
Mean anomaly
200.3966°
Eccentric anomaly
200.38463°
Mean motion
3.82991 °/min
Orbital period
94 mins
BSTAR
0.00042693
Loading maneuver chart data...
Computing Atmospheric mass density...
Loading historical data...
Loading historical data...
Loading historical data...
Loading historical data...
Loading historical data...
Loading historical data...
Loading historical data...

Documentation

Showing up to 5 results
|